contact: severine.martini@mio.osupytheas.fr, dominique.lefevre@mio.osupytheas.fr
Project:EMSO Ligure-ouest http://www.emso-fr.org/EMSO-France
Sensor Aquadopp, Serial 05974 
DOI : "https://doi.org/10.17882/97948" 
Title:EMSO Western Ligurian : Data Bathybot Aquadopp sensor - deploiement 2023-04-28
Datetime,Profondeur,Latitude,Longitude,X_East,Y_North,Z_up,Amplitude_X,Amplitude_Y,Amplitude_Z,Batterie,Sound_Speed,Heading,Pitch,Roll,Pressure,Temperature,Fluorescence,Speed,Direction
time,m,degree_north,degree_east,m.s-1,m.s-1,m.s-1,1,1,1,Volt,m.s-1,degree,degree,degree,dbar,degree_C,arbitrary units (a.u.),m.s-1,degree
2024-01-01T00:03:13,2420,42.8014,5.9826,1.089,0.015,3.286,155.0,151.0,152.0,11.8,1504.7,271.9,-0.8,0.8,2485.611,13.28,794.0,1.089,89.2
2024-01-01T00:06:13,2420,42.8014,5.9826,0.913,-0.23,3.03,155.0,152.0,152.0,11.7,1504.7,271.8,-0.8,0.9,2485.633,13.28,773.0,0.942,104.1
2024-01-01T00:09:12,2420,42.8014,5.9826,0.874,0.004,2.624,155.0,151.0,152.0,11.8,1504.7,272.0,-0.8,0.9,2485.299,13.28,777.0,0.874,89.7
2024-01-01T00:12:13,2420,42.8014,5.9826,1.068,0.02,3.307,155.0,152.0,152.0,11.7,1504.7,271.8,-0.8,0.9,2485.289,13.28,771.0,1.068,88.9
2024-01-01T00:15:13,2420,42.8014,5.9826,0.681,0.021,2.785,155.0,151.0,152.0,11.8,1504.7,271.8,-0.8,0.9,2485.223,13.28,765.0,0.681,88.2
2024-01-01T00:18:13,2420,42.8014,5.9826,1.126,0.021,3.266,155.0,151.0,152.0,11.8,1504.7,271.9,-0.8,0.9,2485.101,13.28,761.0,1.126,88.9
2024-01-01T00:21:13,2420,42.8014,5.9826,0.832,-0.218,3.041,155.0,151.0,152.0,11.8,1504.7,271.8,-0.8,0.9,2485.462,13.28,768.0,0.86,104.7
2024-01-01T00:24:13,2420,42.8014,5.9826,1.099,0.014,3.237,155.0,151.0,152.0,11.8,1504.7,271.9,-0.8,0.9,2485.653,13.28,761.0,1.099,89.3
2024-01-01T00:27:12,2420,42.8014,5.9826,0.779,0.281,3.164,155.0,151.0,152.0,11.7,1504.7,271.8,-0.8,0.9,2485.091,13.28,768.0,0.828,70.2
2024-01-01T00:30:13,2420,42.8014,5.9826,1.041,0.269,2.893,155.0,151.0,152.0,11.7,1504.7,271.8,-0.8,0.9,2485.627,13.28,762.0,1.075,75.5
2024-01-01T00:33:13,2420,42.8014,5.9826,1.024,0.037,3.333,155.0,151.0,152.0,11.8,1504.7,271.8,-0.8,0.9,2485.484,13.28,764.0,1.024,87.9
2024-01-01T00:36:13,2420,42.8014,5.9826,1.066,0.018,3.299,155.0,151.0,152.0,11.8,1504.7,271.9,-0.8,0.9,2485.342,13.28,776.0,1.066,89.0
2024-01-01T00:39:12,2420,42.8014,5.9826,1.076,0.005,3.31,155.0,151.0,152.0,11.8,1504.7,271.9,-0.8,0.9,2485.113,13.28,765.0,1.076,89.7
2024-01-01T00:42:13,2420,42.8014,5.9826,0.893,0.016,3.464,155.0,152.0,152.0,11.8,1504.7,271.9,-0.8,0.9,2485.02,13.28,774.0,0.893,89.0
2024-01-01T00:45:12,2420,42.8014,5.9826,1.016,0.025,3.304,155.0,152.0,152.0,11.8,1504.7,271.8,-0.8,0.9,2485.087,13.28,768.0,1.016,88.6
2024-01-01T00:48:13,2420,42.8014,5.9826,0.992,0.251,2.938,155.0,151.0,152.0,11.8,1504.7,271.9,-0.8,0.9,2485.842,13.28,779.0,1.023,75.8
2024-01-01T00:51:13,2420,42.8014,5.9826,0.692,0.027,2.826,155.0,151.0,152.0,11.8,1504.7,271.8,-0.8,0.9,2485.478,13.28,773.0,0.692,87.8
2024-01-01T00:54:12,2420,42.8014,5.9826,1.066,0.253,2.881,155.0,151.0,152.0,11.8,1504.7,271.9,-0.9,0.9,2485.179,13.28,758.0,1.095,76.7
2024-01-01T00:57:13,2420,42.8014,5.9826,0.942,0.271,3.019,155.0,151.0,152.0,11.8,1504.7,271.8,-0.8,0.9,2485.318,13.28,789.0,0.98,74.0
2024-01-01T01:03:13,2420,42.8014,5.9826,1.042,0.025,3.278,155.0,151.0,152.0,11.8,1504.7,271.9,-0.8,0.9,2485.456,13.28,766.0,1.042,88.6
2024-01-01T01:06:12,2420,42.8014,5.9826,0.916,-0.001,2.542,155.0,152.0,152.0,11.8,1504.7,271.9,-0.8,0.8,2485.43,13.28,759.0,0.916,90.1
2024-01-01T01:09:13,2420,42.8014,5.9826,0.93,0.111,3.268,155.0,151.0,152.0,11.8,1504.7,271.8,-0.9,0.9,2485.275,13.28,769.0,0.937,83.2
2024-01-01T01:12:13,2420,42.8014,5.9826,0.869,0.05,3.443,155.0,151.0,152.0,11.8,1504.7,271.9,-0.8,0.9,2485.089,13.28,767.0,0.87,86.7
2024-01-01T01:15:12,2420,42.8014,5.9826,0.983,0.271,2.944,155.0,151.0,152.0,11.8,1504.7,271.9,-0.8,0.9,2485.414,13.28,772.0,1.02,74.6
2024-01-01T01:18:13,2420,42.8014,5.9826,0.305,0.258,1.923,155.0,151.0,152.0,11.8,1504.7,271.9,-0.9,0.9,2485.215,13.28,773.0,0.399,49.8
2024-01-01T01:21:13,2420,42.8014,5.9826,0.784,0.021,2.725,155.0,151.0,152.0,11.8,1504.7,271.8,-0.9,0.9,2485.048,13.28,764.0,0.784,88.5
2024-01-01T01:24:12,2420,42.8014,5.9826,0.847,0.028,2.695,155.0,151.0,152.0,11.8,1504.7,271.9,-0.8,0.9,2485.075,13.28,758.0,0.847,88.1
2024-01-01T01:27:13,2420,42.8014,5.9826,0.897,-0.21,3.041,155.0,152.0,152.0,11.8,1504.7,271.8,-0.8,0.9,2485.382,13.28,773.0,0.921,103.2
2024-01-01T01:30:13,2420,42.8014,5.9826,0.851,0.028,2.64,155.0,151.0,152.0,11.8,1504.7,271.9,-0.8,0.9,2485.763,13.28,767.0,0.851,88.1
2024-01-01T01:33:13,2420,42.8014,5.9826,1.215,0.022,3.15,155.0,151.0,152.0,11.7,1504.7,271.8,-0.8,0.9,2485.189,13.28,778.0,1.215,89.0
2024-01-01T01:36:12,2420,42.8014,5.9826,0.839,-0.228,3.071,155.0,152.0,152.0,11.8,1504.7,271.9,-0.8,0.9,2485.135,13.28,768.0,0.869,105.2
2024-01-01T01:39:13,2420,42.8014,5.9826,0.983,0.254,2.924,155.0,151.0,152.0,11.8,1504.7,271.9,-0.9,0.9,2485.629,13.28,777.0,1.015,75.5
2024-01-01T01:42:12,2420,42.8014,5.9826,0.679,0.251,2.354,155.0,151.0,152.0,11.8,1504.7,271.8,-0.8,0.9,2485.273,13.28,769.0,0.724,69.7
2024-01-01T01:45:13,2420,42.8014,5.9826,1.118,0.02,3.235,155.0,151.0,152.0,11.8,1504.7,271.8,-0.8,0.9,2485.402,13.28,767.0,1.118,89.0
2024-01-01T01:48:13,2420,42.8014,5.9826,0.721,-0.471,2.754,155.0,151.0,152.0,11.8,1504.7,271.8,-0.8,0.9,2485.111,13.29,774.0,0.861,123.2
2024-01-01T01:51:12,2420,42.8014,5.9826,1.025,-0.227,2.904,155.0,151.0,152.0,11.8,1504.7,271.8,-0.8,0.9,2485.821,13.29,776.0,1.05,102.5
2024-01-01T01:54:13,2420,42.8014,5.9826,0.828,-0.217,3.088,155.0,151.0,152.0,11.7,1504.7,271.8,-0.8,0.9,2485.255,13.3,764.0,0.856,104.7
2024-01-01T01:57:13,2420,42.8014,5.9826,1.027,0.274,2.892,155.0,152.0,152.0,11.8,1504.7,271.8,-0.8,0.9,2485.269,13.3,762.0,1.063,75.1
2024-01-01T02:03:12,2420,42.8014,5.9826,0.793,-0.244,3.114,155.0,151.0,152.0,11.8,1504.7,272.0,-0.9,0.9,2485.079,13.29,757.0,0.83,107.1
2024-01-01T02:06:13,2420,42.8014,5.9826,0.922,0.263,3.04,155.0,152.0,152.0,11.8,1504.7,271.9,-0.8,0.9,2485.129,13.29,758.0,0.959,74.1
2024-01-01T02:09:13,2420,42.8014,5.9826,0.433,0.736,1.746,155.0,151.0,152.0,11.7,1504.7,271.9,-0.8,0.9,2484.749,13.3,763.0,0.854,30.5
2024-01-01T02:12:12,2420,42.8014,5.9826,0.332,0.263,1.886,155.0,151.0,152.0,11.8,1504.7,271.9,-0.8,0.9,2485.311,13.3,768.0,0.424,51.6
2024-01-01T02:15:13,2420,42.8014,5.9826,0.978,0.019,2.521,155.0,151.0,152.0,11.7,1504.7,271.9,-0.9,0.9,2485.47,13.3,765.0,0.978,88.9
2024-01-01T02:18:13,2420,42.8014,5.9826,0.342,0.266,1.887,155.0,152.0,152.0,11.8,1504.7,272.0,-0.8,0.9,2485.34,13.3,769.0,0.433,52.1
2024-01-01T02:21:12,2420,42.8014,5.9826,0.57,0.27,2.53,155.0,151.0,152.0,11.8,1504.7,271.8,-0.8,0.9,2485.177,13.3,776.0,0.631,64.7
2024-01-01T02:24:13,2420,42.8014,5.9826,0.378,0.003,1.371,155.0,152.0,152.0,11.8,1504.7,271.8,-0.8,0.8,2485.297,13.3,762.0,0.378,89.5
2024-01-01T02:27:13,2420,42.8014,5.9826,0.558,0.502,2.122,155.0,151.0,152.0,11.7,1504.7,271.8,-0.8,0.9,2485.247,13.3,778.0,0.751,48.0
2024-01-01T02:30:12,2420,42.8014,5.9826,0.617,0.507,2.015,155.0,151.0,152.0,11.8,1504.7,271.9,-0.8,0.9,2485.408,13.3,3244.0,0.799,50.6
2024-01-01T02:33:12,2420,42.8014,5.9826,1.006,0.279,2.946,155.0,151.0,152.0,11.8,1504.7,271.8,-0.8,0.9,2485.428,13.3,752.0,1.044,74.5
2024-01-01T02:36:13,2420,42.8014,5.9826,0.928,-0.216,3.074,155.0,152.0,152.0,11.8,1504.8,271.9,-0.8,0.9,2484.916,13.31,773.0,0.953,103.1
2024-01-01T02:39:12,2420,42.8014,5.9826,0.779,-0.469,2.764,155.0,152.0,152.0,11.8,1504.8,271.9,-0.8,0.9,2485.436,13.31,762.0,0.909,121.1
2024-01-01T02:42:13,2420,42.8014,5.9826,0.668,-0.228,2.434,155.0,151.0,152.0,11.8,1504.8,271.8,-0.9,0.9,2485.185,13.31,1779.0,0.706,108.8
2024-01-01T02:45:12,2420,42.8014,5.9826,0.305,-0.001,1.427,155.0,151.0,152.0,11.8,1504.8,271.8,-0.8,0.9,2485.151,13.31,781.0,0.305,90.2
2024-01-01T02:48:13,2420,42.8014,5.9826,0.902,0.503,2.656,155.0,151.0,152.0,11.8,1504.8,271.8,-0.8,0.9,2485.548,13.31,757.0,1.033,60.9
2024-01-01T02:51:13,2420,42.8014,5.9826,0.884,0.521,2.636,155.0,152.0,152.0,11.8,1504.8,271.9,-0.8,0.9,2485.155,13.31,775.0,1.026,59.5
2024-01-01T02:54:12,2420,42.8014,5.9826,0.24,-0.225,1.013,155.0,151.0,152.0,11.8,1504.8,271.9,-0.8,0.9,2485.241,13.31,778.0,0.329,133.1
2024-01-01T02:57:13,2420,42.8014,5.9826,1.199,0.274,2.713,155.0,151.0,152.0,11.8,1504.8,271.8,-0.8,0.9,2485.137,13.31,761.0,1.23,77.1
2024-01-01T03:03:13,2420,42.8014,5.9826,0.547,0.279,2.512,155.0,151.0,152.0,11.8,1504.8,271.8,-0.9,0.9,2485.277,13.31,772.0,0.614,63.0
2024-01-01T03:06:12,2420,42.8014,5.9826,0.831,0.274,3.16,155.0,151.0,152.0,11.8,1504.7,271.9,-0.8,0.9,2485.022,13.3,778.0,0.875,71.8
2024-01-01T03:09:13,2420,42.8014,5.9826,0.581,0.513,2.05,155.0,151.0,152.0,11.8,1504.7,271.9,-0.8,0.9,2485.326,13.3,771.0,0.775,48.6
2024-01-01T03:12:12,2420,42.8014,5.9826,1.041,0.029,3.338,155.0,151.0,152.0,11.8,1504.7,272.0,-0.8,0.9,2484.727,13.3,757.0,1.041,88.4
2024-01-01T03:15:13,2420,42.8014,5.9826,0.768,-0.448,2.705,155.0,151.0,152.0,11.8,1504.8,271.8,-0.8,0.9,2485.512,13.31,758.0,0.889,120.3
2024-01-01T03:18:13,2420,42.8014,5.9826,0.537,0.515,2.096,155.0,152.0,152.0,11.8,1504.8,271.9,-0.8,0.9,2485.241,13.31,767.0,0.744,46.2
2024-01-01T03:21:12,2420,42.8014,5.9826,1.091,0.025,3.294,155.0,152.0,152.0,11.8,1504.8,272.0,-0.8,0.9,2485.408,13.31,774.0,1.091,88.7
2024-01-01T03:24:13,2420,42.8014,5.9826,1.038,-0.229,2.947,155.0,151.0,152.0,11.8,1504.8,271.8,-0.8,0.9,2485.522,13.31,769.0,1.063,102.4
2024-01-01T03:27:13,2420,42.8014,5.9826,0.958,0.262,2.989,155.0,151.0,152.0,11.8,1504.8,271.8,-0.8,0.9,2485.211,13.31,771.0,0.993,74.7
2024-01-01T03:30:13,2420,42.8014,5.9826,0.986,0.28,2.955,155.0,151.0,152.0,11.8,1504.8,271.8,-0.8,0.9,2485.639,13.31,775.0,1.025,74.1
2024-01-01T03:33:12,2420,42.8014,5.9826,0.882,0.268,3.062,155.0,151.0,152.0,11.8,1504.8,271.9,-0.8,0.9,2485.366,13.31,780.0,0.922,73.1
2024-01-01T03:36:13,2420,42.8014,5.9826,1.042,0.013,3.325,155.0,151.0,152.0,11.8,1504.8,272.0,-0.8,0.9,2485.496,13.31,759.0,1.042,89.3
2024-01-01T03:39:13,2420,42.8014,5.9826,0.484,-0.461,2.134,155.0,152.0,152.0,11.8,1504.8,271.9,-0.8,0.9,2485.189,13.31,767.0,0.668,133.6
2024-01-01T03:42:12,2420,42.8014,5.9826,0.859,0.0,2.651,155.0,151.0,152.0,11.8,1504.8,271.8,-0.8,0.9,2485.253,13.31,766.0,0.859,90.0
2024-01-01T03:45:13,2420,42.8014,5.9826,0.905,-0.007,2.57,155.0,151.0,152.0,11.8,1504.7,271.8,-0.9,0.9,2485.044,13.3,780.0,0.905,90.4
2024-01-01T03:48:13,2420,42.8014,5.9826,1.078,0.018,3.286,155.0,152.0,152.0,11.8,1504.8,271.9,-0.8,0.9,2485.177,13.31,776.0,1.078,89.0
2024-01-01T03:51:12,2420,42.8014,5.9826,1.096,0.266,2.845,155.0,151.0,152.0,11.8,1504.8,272.0,-0.8,0.9,2485.556,13.31,955.0,1.128,76.4
2024-01-01T03:54:13,2420,42.8014,5.9826,0.538,-0.729,1.633,155.0,152.0,152.0,11.8,1504.8,271.8,-0.8,0.9,2485.193,13.31,846.0,0.906,143.6
2024-01-01T03:57:13,2420,42.8014,5.9826,0.694,0.518,2.861,155.0,151.0,152.0,11.8,1504.8,271.8,-0.8,0.9,2485.173,13.31,862.0,0.866,53.3
2024-01-01T04:03:12,2420,42.8014,5.9826,0.214,-0.472,1.508,155.0,151.0,152.0,11.7,1504.8,271.8,-0.9,0.9,2485.273,13.31,854.0,0.518,155.6
2024-01-01T04:06:13,2420,42.8014,5.9826,0.477,0.015,2.184,155.0,152.0,152.0,11.8,1504.8,271.8,-0.9,0.9,2485.069,13.32,862.0,0.477,88.2
2024-01-01T04:09:13,2420,42.8014,5.9826,0.322,0.508,1.443,155.0,152.0,152.0,11.8,1504.8,271.8,-0.9,0.9,2485.303,13.32,860.0,0.601,32.4
2024-01-01T04:12:12,2420,42.8014,5.9826,1.028,0.144,2.672,155.0,152.0,152.0,11.7,1504.8,272.0,-0.8,0.9,2485.817,13.32,869.0,1.038,82.0
2024-01-01T04:15:13,2420,42.8014,5.9826,0.841,-0.235,3.12,155.0,152.0,152.0,11.8,1504.8,271.9,-0.8,0.9,2485.285,13.32,865.0,0.873,105.6
2024-01-01T04:18:13,2420,42.8014,5.9826,1.104,0.037,3.261,155.0,151.0,152.0,11.8,1504.8,271.8,-0.9,0.9,2485.597,13.32,879.0,1.104,88.1
2024-01-01T04:21:12,2420,42.8014,5.9826,0.697,0.258,2.367,155.0,151.0,152.0,11.8,1504.8,271.9,-0.8,0.9,2485.47,13.33,1016.0,0.743,69.7
2024-01-01T04:24:13,2420,42.8014,5.9826,0.76,0.511,2.773,155.0,151.0,152.0,11.8,1504.8,271.9,-0.8,0.9,2485.237,13.32,882.0,0.916,56.1
2024-01-01T04:27:13,2420,42.8014,5.9826,0.513,-0.224,2.593,155.0,151.0,152.0,11.8,1504.8,271.9,-0.8,0.9,2485.38,13.31,901.0,0.56,113.6
2024-01-01T04:30:12,2420,42.8014,5.9826,0.346,-0.234,1.853,155.0,152.0,152.0,11.8,1504.8,271.8,-0.9,0.9,2485.587,13.31,912.0,0.418,124.1
2024-01-01T04:33:13,2420,42.8014,5.9826,0.678,0.74,2.381,155.0,152.0,152.0,11.8,1504.7,271.9,-0.8,0.9,2485.149,13.3,912.0,1.004,42.5
2024-01-01T04:36:13,2420,42.8014,5.9826,-0.225,0.746,0.684,155.0,151.0,152.0,11.8,1504.7,271.8,-0.8,0.9,2485.149,13.3,917.0,0.779,343.2
2024-01-01T04:39:13,2420,42.8014,5.9826,0.937,0.491,2.573,155.0,151.0,152.0,11.8,1504.7,271.9,-0.8,0.9,2485.269,13.3,880.0,1.058,62.3
2024-01-01T04:42:13,2420,42.8014,5.9826,0.692,0.52,2.841,155.0,151.0,152.0,11.8,1504.7,271.9,-0.8,0.9,2485.281,13.3,898.0,0.866,53.1
2024-01-01T04:45:13,2420,42.8014,5.9826,0.888,0.262,3.08,155.0,151.0,152.0,11.8,1504.7,271.9,-0.8,0.9,2485.012,13.3,914.0,0.926,73.6
2024-01-01T04:48:13,2420,42.8014,5.9826,0.855,-0.229,3.09,155.0,151.0,152.0,11.8,1504.7,271.8,-0.9,0.9,2485.384,13.29,902.0,0.885,105.0
2024-01-01T04:51:12,2420,42.8014,5.9826,0.403,1.229,0.935,155.0,151.0,152.0,11.8,1504.7,271.8,-0.8,0.9,2484.972,13.29,924.0,1.293,18.2
2024-01-01T04:54:13,2420,42.8014,5.9826,0.712,0.268,2.391,155.0,151.0,152.0,11.8,1504.7,271.8,-0.8,0.9,2484.906,13.29,948.0,0.761,69.4
2024-01-01T04:57:13,2420,42.8014,5.9826,0.571,0.022,2.08,155.0,152.0,152.0,11.8,1504.7,271.8,-0.8,0.9,2485.348,13.29,925.0,0.571,87.8
2024-01-01T05:03:13,2420,42.8014,5.9826,0.201,0.528,1.561,155.0,151.0,152.0,11.8,1504.7,271.9,-0.8,0.9,2485.448,13.29,918.0,0.565,20.8
2024-01-01T05:06:12,2420,42.8014,5.9826,1.068,0.019,3.321,155.0,151.0,152.0,11.8,1504.7,272.0,-0.8,0.9,2485.305,13.29,903.0,1.068,89.0
2024-01-01T05:09:13,2420,42.8014,5.9826,0.577,-0.226,2.436,155.0,151.0,152.0,11.8,1504.7,271.9,-0.8,0.9,2484.9,13.29,896.0,0.62,111.4
2024-01-01T05:12:13,2420,42.8014,5.9826,0.943,0.272,2.986,155.0,151.0,152.0,11.8,1504.7,271.9,-0.8,0.9,2485.167,13.29,907.0,0.981,73.9
2024-01-01T05:15:13,2420,42.8014,5.9826,0.641,0.031,2.889,155.0,151.0,152.0,11.8,1504.7,271.8,-0.8,0.9,2485.48,13.29,934.0,0.642,87.2
2024-01-01T05:18:13,2420,42.8014,5.9826,0.85,0.0,2.65,155.0,151.0,152.0,11.8,1504.7,271.9,-0.8,0.9,2485.261,13.29,912.0,0.85,90.0
2024-01-01T05:21:12,2420,42.8014,5.9826,0.606,0.279,2.44,155.0,151.0,152.0,11.8,1504.7,271.8,-0.9,0.9,2485.334,13.29,902.0,0.667,65.3
2024-01-01T05:24:13,2420,42.8014,5.9826,0.869,0.042,3.528,155.0,151.0,152.0,11.8,1504.7,271.8,-0.9,0.9,2485.237,13.29,893.0,0.87,87.2
2024-01-01T05:27:12,2420,42.8014,5.9826,0.919,0.011,2.587,155.0,151.0,152.0,11.7,1504.7,271.9,-0.8,0.9,2485.161,13.28,904.0,0.919,89.3
2024-01-01T05:30:13,2420,42.8014,5.9826,0.579,0.512,2.09,155.0,152.0,152.0,11.8,1504.7,271.8,-0.8,0.9,2485.083,13.28,914.0,0.773,48.5
2024-01-01T05:33:13,2420,42.8014,5.9826,0.848,0.259,3.088,155.0,151.0,152.0,11.8,1504.7,271.9,-0.8,0.9,2485.512,13.28,900.0,0.887,73.0
2024-01-01T05:36:13,2420,42.8014,5.9826,1.195,0.032,3.149,155.0,151.0,152.0,11.8,1504.7,271.9,-0.8,0.9,2485.476,13.28,896.0,1.195,88.5
2024-01-01T05:39:12,2420,42.8014,5.9826,0.837,-0.48,2.672,155.0,151.0,152.0,11.8,1504.7,271.8,-0.9,0.9,2485.633,13.28,926.0,0.965,119.8
2024-01-01T05:42:13,2420,42.8014,5.9826,0.47,-0.361,1.928,155.0,155.0,152.0,11.8,1504.7,271.8,-0.9,0.8,2485.651,13.28,918.0,0.593,127.5
2024-01-01T05:45:13,2420,42.8014,5.9826,0.691,0.271,2.37,155.0,151.0,152.0,11.8,1504.7,271.8,-0.8,0.9,2485.223,13.28,913.0,0.742,68.6
2024-01-01T05:48:12,2420,42.8014,5.9826,0.889,0.016,2.626,155.0,151.0,152.0,11.8,1504.7,271.8,-0.8,0.9,2485.207,13.28,902.0,0.889,89.0
2024-01-01T05:51:13,2420,42.8014,5.9826,0.587,0.272,2.491,155.0,151.0,152.0,11.7,1504.7,271.8,-0.8,0.9,2485.416,13.28,908.0,0.647,65.1
2024-01-01T05:54:13,2420,42.8014,5.9826,1.044,0.026,3.367,155.0,151.0,152.0,11.8,1504.7,271.8,-0.8,0.9,2485.263,13.28,907.0,1.044,88.6
2024-01-01T05:57:12,2420,42.8014,5.9826,1.044,0.274,2.938,155.0,151.0,152.0,11.8,1504.7,271.9,-0.9,0.9,2485.141,13.28,893.0,1.079,75.3
2024-01-01T06:03:13,2420,42.8014,5.9826,0.784,-0.227,2.264,155.0,151.0,152.0,11.7,1504.7,271.9,-0.8,0.9,2485.307,13.28,898.0,0.816,106.1
2024-01-01T06:06:13,2420,42.8014,5.9826,0.954,0.265,2.968,155.0,151.0,152.0,11.8,1504.7,271.8,-0.8,0.9,2485.185,13.28,903.0,0.99,74.5
2024-01-01T06:09:12,2420,42.8014,5.9826,0.846,0.036,2.679,155.0,151.0,152.0,11.8,1504.7,271.8,-0.9,0.9,2485.703,13.28,908.0,0.847,87.6
2024-01-01T06:12:13,2420,42.8014,5.9826,1.161,0.036,3.204,155.0,151.0,152.0,11.7,1504.7,271.8,-0.8,0.9,2485.123,13.28,896.0,1.161,88.2
2024-01-01T06:15:13,2420,42.8014,5.9826,1.088,0.019,3.33,155.0,152.0,152.0,11.8,1504.7,272.0,-0.8,0.9,2485.125,13.28,903.0,1.088,89.0
2024-01-01T06:18:12,2420,42.8014,5.9826,0.941,0.251,2.992,155.0,151.0,152.0,11.8,1504.7,271.8,-0.8,0.9,2485.175,13.28,891.0,0.974,75.1
2024-01-01T06:21:13,2420,42.8014,5.9826,1.1,0.023,3.277,155.0,151.0,152.0,11.7,1504.7,271.8,-0.8,0.9,2485.498,13.28,906.0,1.1,88.8
2024-01-01T06:24:13,2420,42.8014,5.9826,0.725,-0.217,3.196,155.0,151.0,152.0,11.8,1504.7,271.8,-0.8,0.9,2485.0,13.28,910.0,0.757,106.7
2024-01-01T06:27:12,2420,42.8014,5.9826,0.731,0.021,2.764,155.0,151.0,152.0,11.8,1504.7,271.8,-0.8,0.9,2485.464,13.28,892.0,0.731,88.4
2024-01-01T06:30:13,2420,42.8014,5.9826,0.901,0.278,3.04,155.0,151.0,152.0,11.8,1504.7,271.8,-0.8,0.9,2485.265,13.28,884.0,0.943,72.9
2024-01-01T06:33:13,2420,42.8014,5.9826,0.996,0.268,2.959,155.0,152.0,152.0,11.8,1504.7,271.9,-0.8,0.9,2485.342,13.28,889.0,1.031,74.9
2024-01-01T06:36:13,2420,42.8014,5.9826,0.567,0.27,2.536,155.0,152.0,152.0,11.8,1504.7,271.9,-0.8,0.9,2485.121,13.28,889.0,0.628,64.5
2024-01-01T06:39:12,2420,42.8014,5.9826,0.879,0.488,2.609,155.0,152.0,152.0,11.8,1504.7,271.8,-0.8,0.9,2485.438,13.28,897.0,1.005,61.0
2024-01-01T06:42:13,2420,42.8014,5.9826,0.598,-0.236,2.493,155.0,152.0,152.0,11.7,1504.7,271.8,-0.9,0.9,2485.5,13.28,887.0,0.643,111.5
2024-01-01T06:45:13,2420,42.8014,5.9826,0.812,-0.218,3.11,155.0,151.0,152.0,11.8,1504.7,271.9,-0.8,0.9,2485.418,13.28,907.0,0.841,105.0
2024-01-01T06:48:13,2420,42.8014,5.9826,0.779,0.287,3.154,155.0,151.0,152.0,11.8,1504.7,271.9,-0.8,0.9,2484.938,13.28,903.0,0.83,69.8
2024-01-01T06:51:13,2420,42.8014,5.9826,0.572,0.025,2.945,155.0,151.0,152.0,11.8,1504.7,271.8,-0.8,0.9,2485.201,13.28,902.0,0.572,87.5
2024-01-01T06:54:12,2420,42.8014,5.9826,0.863,-0.238,3.093,155.0,151.0,152.0,11.8,1504.7,271.9,-0.9,0.9,2485.151,13.28,892.0,0.895,105.4
2024-01-01T06:57:13,2420,42.8014,5.9826,0.898,-0.201,3.027,155.0,152.0,152.0,11.8,1504.7,271.8,-0.9,0.9,2485.406,13.28,868.0,0.92,102.6
2024-01-01T07:03:13,2420,42.8014,5.9826,0.782,0.508,2.758,155.0,151.0,152.0,11.8,1504.7,271.8,-0.8,0.9,2485.055,13.28,876.0,0.933,57.0
2024-01-01T07:06:13,2420,42.8014,5.9826,0.83,-0.481,2.644,155.0,151.0,152.0,11.8,1504.7,272.0,-0.8,0.9,2485.219,13.28,875.0,0.959,120.1
2024-01-01T07:09:12,2420,42.8014,5.9826,0.824,-0.231,3.106,155.0,151.0,152.0,11.7,1504.7,272.0,-0.8,0.9,2485.554,13.28,869.0,0.856,105.7
2024-01-01T07:12:13,2420,42.8014,5.9826,0.867,-0.227,3.067,155.0,151.0,152.0,11.8,1504.7,271.9,-0.8,0.9,2485.412,13.28,871.0,0.896,104.7
2024-01-01T07:15:12,2420,42.8014,5.9826,0.978,0.033,3.443,155.0,152.0,152.0,11.7,1504.7,271.8,-0.9,0.9,2485.265,13.28,854.0,0.979,88.1
2024-01-01T07:18:13,2420,42.8014,5.9826,1.014,0.02,3.347,155.0,151.0,152.0,11.8,1504.7,271.8,-0.9,0.9,2485.251,13.28,876.0,1.014,88.9
2024-01-01T07:21:13,2420,42.8014,5.9826,1.149,0.002,3.188,155.0,151.0,152.0,11.7,1504.7,271.9,-0.9,0.8,2485.522,13.28,883.0,1.149,89.9
2024-01-01T07:24:12,2420,42.8014,5.9826,0.937,0.023,3.436,155.0,152.0,152.0,11.7,1504.7,271.9,-0.8,0.9,2485.426,13.28,882.0,0.937,88.6
2024-01-01T07:27:13,2420,42.8014,5.9826,0.931,0.019,3.433,155.0,151.0,152.0,11.8,1504.7,272.1,-0.8,0.9,2485.611,13.28,879.0,0.931,88.8
2024-01-01T07:30:13,2420,42.8014,5.9826,1.064,0.017,3.303,155.0,151.0,152.0,11.8,1504.7,271.8,-0.8,0.9,2485.281,13.28,886.0,1.064,89.1
2024-01-01T07:33:13,2420,42.8014,5.9826,0.745,-0.223,3.162,155.0,152.0,152.0,11.8,1504.7,272.0,-0.8,0.9,2485.472,13.28,871.0,0.778,106.7
2024-01-01T07:36:12,2420,42.8014,5.9826,0.787,0.261,3.126,155.0,151.0,152.0,11.8,1504.7,271.9,-0.8,0.9,2485.362,13.28,898.0,0.829,71.7
2024-01-01T07:39:13,2420,42.8014,5.9826,0.799,0.264,3.082,155.0,151.0,152.0,11.8,1504.7,271.9,-0.8,0.9,2485.428,13.28,882.0,0.841,71.7
2024-01-01T07:42:12,2420,42.8014,5.9826,1.09,0.013,3.287,155.0,152.0,152.0,11.8,1504.7,271.9,-0.8,0.9,2485.492,13.28,11468.0,1.09,89.3
2024-01-01T07:45:13,2420,42.8014,5.9826,0.905,0.016,3.457,155.0,152.0,152.0,11.8,1504.7,271.8,-0.8,0.9,2485.161,13.28,10754.0,0.905,89.0
2024-01-01T07:48:13,2420,42.8014,5.9826,0.79,0.025,2.727,155.0,151.0,152.0,11.8,1504.7,271.9,-0.9,0.9,2485.243,13.28,10147.0,0.79,88.2
2024-01-01T07:51:12,2420,42.8014,5.9826,1.091,0.009,3.237,155.0,151.0,152.0,11.7,1504.7,271.9,-0.9,0.9,2485.372,13.28,11752.0,1.091,89.5
2024-01-01T07:54:13,2420,42.8014,5.9826,0.649,0.027,2.823,155.0,151.0,152.0,11.8,1504.7,271.9,-0.9,0.9,2485.265,13.28,9286.0,0.649,87.6
2024-01-01T07:57:13,2420,42.8014,5.9826,0.89,0.026,3.484,155.0,151.0,152.0,11.8,1504.7,271.9,-0.8,0.9,2485.167,13.28,10091.0,0.89,88.3
2024-01-01T08:03:12,2420,42.8014,5.9826,1.032,0.022,3.369,155.0,151.0,152.0,11.8,1504.7,272.0,-0.8,0.9,2485.538,13.28,9080.0,1.032,88.8
2024-01-01T08:06:13,2420,42.8014,5.9826,0.629,-0.239,2.426,155.0,151.0,152.0,11.8,1504.7,271.8,-0.8,0.9,2485.191,13.28,9105.0,0.673,110.8
2024-01-01T08:09:12,2420,42.8014,5.9826,0.937,-0.239,2.976,155.0,151.0,152.0,11.8,1504.7,271.8,-0.8,0.9,2485.478,13.28,9316.0,0.967,104.3
2024-01-01T08:12:13,2420,42.8014,5.9826,1.088,0.024,3.261,155.0,151.0,152.0,11.8,1504.7,271.9,-0.8,0.9,2485.35,13.28,11655.0,1.088,88.7
2024-01-01T08:15:13,2420,42.8014,5.9826,1.228,0.02,3.129,155.0,151.0,152.0,11.8,1504.7,271.8,-0.9,0.9,2485.575,13.28,10791.0,1.228,89.1
2024-01-01T08:18:13,2420,42.8014,5.9826,0.86,0.156,3.326,155.0,151.0,152.0,11.8,1504.7,271.8,-0.8,0.9,2485.51,13.28,10879.0,0.874,79.7
2024-01-01T08:21:13,2420,42.8014,5.9826,0.721,0.279,3.244,155.0,151.0,152.0,11.8,1504.7,271.8,-0.8,0.9,2485.197,13.28,11268.0,0.773,68.9
2024-01-01T08:24:13,2420,42.8014,5.9826,0.936,0.01,3.444,155.0,151.0,152.0,11.8,1504.7,271.8,-0.8,0.9,2485.43,13.28,11310.0,0.936,89.4
2024-01-01T08:27:13,2420,42.8014,5.9826,0.674,0.509,2.814,155.0,151.0,152.0,11.8,1504.7,271.8,-0.8,0.9,2485.279,13.28,12072.0,0.845,52.9
2024-01-01T08:30:13,2420,42.8014,5.9826,0.961,-0.241,2.955,155.0,151.0,152.0,11.7,1504.7,271.8,-0.8,0.9,2485.012,13.28,10698.0,0.991,104.1
2024-01-01T08:33:13,2420,42.8014,5.9826,1.056,0.024,3.253,155.0,152.0,152.0,11.8,1504.7,271.9,-0.8,0.9,2485.342,13.28,10854.0,1.056,88.7
2024-01-01T08:36:13,2420,42.8014,5.9826,0.944,0.028,3.442,155.0,151.0,152.0,11.8,1504.7,271.8,-0.9,0.9,2485.297,13.28,10436.0,0.944,88.3
2024-01-01T08:39:12,2420,42.8014,5.9826,1.163,0.029,3.207,155.0,151.0,152.0,11.8,1504.7,271.8,-0.9,0.9,2485.797,13.28,12697.0,1.163,88.6
2024-01-01T08:42:13,2420,42.8014,5.9826,1.116,0.003,3.227,155.0,152.0,152.0,11.8,1504.7,271.9,-0.8,0.9,2485.57,13.28,14697.0,1.116,89.8
2024-01-01T08:45:13,2420,42.8014,5.9826,0.946,0.012,3.369,155.0,151.0,152.0,11.8,1504.7,271.9,-0.8,0.9,2485.255,13.28,13643.0,0.946,89.3
2024-01-01T08:48:12,2420,42.8014,5.9826,1.099,0.012,3.264,155.0,151.0,152.0,11.8,1504.7,271.8,-0.8,0.9,2485.444,13.28,12776.0,1.099,89.4
2024-01-01T08:51:13,2420,42.8014,5.9826,0.782,-0.221,3.057,155.0,152.0,152.0,11.8,1504.7,271.8,-0.8,0.9,2485.213,13.28,11523.0,0.813,105.8
2024-01-01T08:54:13,2420,42.8014,5.9826,0.898,0.043,3.436,155.0,152.0,152.0,11.8,1504.7,271.8,-0.8,0.9,2485.554,13.28,11219.0,0.899,87.3
2024-01-01T08:57:12,2420,42.8014,5.9826,0.757,0.152,3.418,155.0,151.0,152.0,11.8,1504.7,271.8,-0.8,0.9,2485.56,13.28,10637.0,0.772,78.6
2024-01-01T09:03:13,2420,42.8014,5.9826,0.79,0.034,2.647,155.0,151.0,152.0,11.8,1504.7,271.9,-0.8,0.9,2485.432,13.28,11414.0,0.791,87.5
2024-01-01T09:06:13,2420,42.8014,5.9826,1.129,0.011,3.2,155.0,152.0,152.0,11.7,1504.7,271.9,-0.8,0.9,2485.504,13.28,10494.0,1.129,89.4